Trondheim, Norway

8:04 PM CEST on June 22, 2018 (GMT +0200)
Vaernes Air Base

Weather History for ENVA - September, 2017

Change the Weather History Date:

Thursday, September 14, 2017

  Actual Average Record
Temperature  
Mean Temperature 52 °F -  
Max Temperature 57 °F 52 °F 71 °F (1999)
Min Temperature 48 °F 40 °F 33 °F (1996)
Degree Days  
Heating Degree Days 12    
Growing Degree Days 2 (Base 50)    
Moisture  
Dew Point 49 °F    
Average Humidity 87    
Maximum Humidity 100    
Minimum Humidity 66    
Precipitation  
Precipitation 0.00 in 0.14 in - ()
Sea Level Pressure  
Sea Level Pressure 29.32 in    
Wind  
Wind Speed 5 mph ()    
Max Wind Speed 10 mph    
Max Gust Speed -    
Visibility 7.1 miles    
Events Rain    
Averages and records for this station are not official NWS values.
T = Trace of Precipitation, MM = Missing Value Source: Averaged Metar Reports

Daily Weather History Graph

Daily Weather History Graph

Search for Another Location

Airport or City:

Astronomy

Sep. 14, 2017 Rise Set
Actual Time 6:37 AM CEST 7:44 PM CEST
Civil Twilight 5:49 AM CEST 8:32 PM CEST
Nautical Twilight 4:48 AM CEST 9:32 PM CEST
Astronomical Twilight 3:34 AM CEST 10:44 PM CEST
Moon 11:41 PM CEST (9/14) 5:21 PM CEST (9/14)
Length of Visible Light 14h 42m
Length of Day
13h 06m
Last Quarter, 37% of the Moon is Illuminated
Sep 14
Last Quarter
Sep 20
New
Sep 28
First Quarter
Oct 5
Full
Oct 12
Last Quarter

Hourly Weather History & Observations

Time (CEST) Temp. Dew Point Humidity Pressure Visibility Wind Dir Wind Speed Gust Speed Precip Events Conditions
12:00 AM 50 °F 48 °F 92% 29.26 in 31 mi ESE 4.5 mph - -   Clear
12:20 AM 50.0 °F 48.2 °F 94% 29.24 in 6.2 mi East 4.6 mph - N/A   Mostly Cloudy
12:50 AM 50.0 °F 48.2 °F 94% 29.24 in 6.2 mi ESE 5.8 mph - N/A   Mostly Cloudy
1:00 AM 50 °F 49 °F 93% 29.26 in 28 mi East 6.7 mph - -   Clear
1:20 AM 50.0 °F 48.2 °F 94% 29.24 in - East 5.8 mph - N/A   Clear
2:00 AM 50 °F 48 °F 90% 29.26 in 31 mi ESE 6.7 mph - -   Clear
2:20 AM 50.0 °F 48.2 °F 94% 29.24 in - ESE 5.8 mph - N/A   Clear
3:00 AM 49 °F 48 °F 94% 29.27 in 31 mi ESE 4.5 mph - -   Clear
4:20 AM 48.2 °F 48.2 °F 100% 29.27 in 6.2 mi ESE 3.5 mph - N/A   Overcast
4:50 AM 48.2 °F 48.2 °F 100% 29.27 in 6.2 mi East 4.6 mph - N/A   Overcast
5:00 AM 49 °F 47 °F 92% 29.27 in 31 mi East 4.5 mph - -   Clear
5:20 AM 48.2 °F 48.2 °F 100% 29.27 in 6.2 mi East 4.6 mph - N/A   Overcast
5:50 AM 48.2 °F 48.2 °F 100% 29.27 in 6.2 mi ESE 5.8 mph - N/A   Overcast
6:00 AM 49 °F 47 °F 92% 29.28 in 31 mi ESE 4.5 mph - -   Clear
6:20 AM 48.2 °F 48.2 °F 100% 29.27 in 6.2 mi ESE 4.6 mph - N/A   Mostly Cloudy
6:50 AM 48.2 °F 48.2 °F 100% 29.27 in 6.2 mi East 5.8 mph - N/A   Mostly Cloudy
7:00 AM 49 °F 47 °F 92% 29.28 in 31 mi East 4.5 mph - -   Clear
7:20 AM 48.2 °F 48.2 °F 100% 29.27 in 6.2 mi East 4.6 mph - N/A   Mostly Cloudy
7:50 AM 48.2 °F 48.2 °F 100% 29.27 in 6.2 mi East 4.6 mph - N/A   Mostly Cloudy
8:00 AM 49 °F 48 °F 93% 29.28 in 31 mi East 4.5 mph - -   Clear
8:20 AM 50.0 °F 48.2 °F 94% 29.27 in 6.2 mi East 4.6 mph - N/A   Mostly Cloudy
8:50 AM 50.0 °F 48.2 °F 94% 29.27 in 6.2 mi East 4.6 mph - N/A   Mostly Cloudy
9:00 AM 50 °F 48 °F 90% 29.29 in 31 mi East 4.5 mph - -   Clear
9:20 AM 50.0 °F 48.2 °F 94% 29.27 in 6.2 mi East 3.5 mph - N/A   Mostly Cloudy
9:50 AM 51.8 °F 48.2 °F 88% 29.30 in 6.2 mi ESE 4.6 mph - N/A   Mostly Cloudy
10:00 AM 51 °F 49 °F 90% 29.31 in 28 mi ESE 4.5 mph - -   Clear
10:20 AM 51.8 °F 48.2 °F 88% 29.30 in 6.2 mi ESE 2.3 mph - N/A   Mostly Cloudy
10:50 AM 51.8 °F 50.0 °F 94% 29.30 in 6.2 mi Variable 3.5 mph - N/A   Mostly Cloudy
11:00 AM 53 °F 50 °F 85% 29.32 in 22 mi SSE 2.2 mph - -   Clear
11:20 AM 53.6 °F 50.0 °F 88% 29.30 in 6.2 mi SE 3.5 mph - N/A   Mostly Cloudy
11:50 AM 53.6 °F 50.0 °F 88% 29.30 in 6.2 mi WSW 3.5 mph - N/A   Mostly Cloudy
12:00 PM 55 °F 51 °F 83% 29.33 in 22 mi West 4.5 mph - -   Clear
12:20 PM 55.4 °F 51.8 °F 88% 29.30 in 6.2 mi WSW 3.5 mph - N/A   Mostly Cloudy
12:50 PM 55.4 °F 51.8 °F 88% 29.33 in 6.2 mi West 6.9 mph - N/A   Mostly Cloudy
1:00 PM 56 °F 52 °F 80% 29.33 in 19 mi West 6.7 mph - -   Clear
1:20 PM 55.4 °F 51.8 °F 88% 29.33 in 6.2 mi West 6.9 mph - N/A   Mostly Cloudy
1:50 PM 57.2 °F 51.8 °F 82% 29.33 in 6.2 mi West 8.1 mph - N/A   Mostly Cloudy
2:00 PM 56 °F 51 °F 77% 29.34 in 22 mi WSW 8.9 mph - -   Clear
2:20 PM 57.2 °F 50.0 °F 77% 29.33 in 6.2 mi WSW 9.2 mph - N/A   Mostly Cloudy
2:50 PM 57.2 °F 51.8 °F 82% 29.33 in 6.2 mi WSW 6.9 mph - N/A   Mostly Cloudy
3:00 PM 57 °F 49 °F 66% 29.34 in 19 mi WSW 6.7 mph - -   Clear
3:20 PM 57.2 °F 50.0 °F 77% 29.33 in 6.2 mi WSW 8.1 mph - N/A   Mostly Cloudy
3:50 PM 57.2 °F 50.0 °F 77% 29.33 in 6.2 mi West 10.4 mph - N/A   Mostly Cloudy
4:00 PM 56 °F 51 °F 77% 29.35 in 19 mi WSW 8.9 mph - -   Clear
4:20 PM 55.4 °F 51.8 °F 88% 29.33 in 6.2 mi WSW 9.2 mph - N/A   Mostly Cloudy
4:50 PM 55.4 °F 51.8 °F 88% 29.33 in 6.2 mi West 10.4 mph - N/A   Mostly Cloudy
5:00 PM 55 °F 50 °F 79% 29.36 in 22 mi West 8.9 mph - -   Clear
5:20 PM 55.4 °F 50.0 °F 82% 29.36 in 6.2 mi WSW 9.2 mph - N/A   Mostly Cloudy
5:50 PM 55.4 °F 50.0 °F 82% 29.36 in 6.2 mi WNW 6.9 mph - N/A   Mostly Cloudy
6:00 PM 56 °F 50 °F 74% 29.37 in 28 mi NNW 8.9 mph - -   Clear
6:20 PM 55.4 °F 50.0 °F 82% 29.36 in 6.2 mi NNW 8.1 mph - N/A   Mostly Cloudy
6:50 PM 57.2 °F 48.2 °F 72% 29.36 in 6.2 mi West 4.6 mph - N/A   Mostly Cloudy
7:00 PM 56 °F 49 °F 69% 29.38 in 31 mi West 6.7 mph - -   Clear
7:20 PM 55.4 °F 48.2 °F 77% 29.36 in 6.2 mi West 5.8 mph - N/A   Mostly Cloudy
7:50 PM 55.4 °F 48.2 °F 77% 29.36 in 6.2 mi West 5.8 mph - N/A   Mostly Cloudy
8:00 PM 54 °F 49 °F 76% 29.39 in 31 mi West 6.7 mph - -   Clear
8:20 PM 55.4 °F 48.2 °F 77% 29.39 in 6.2 mi West 8.1 mph - N/A   Mostly Cloudy
8:50 PM 53.6 °F 48.2 °F 82% 29.39 in 6.2 mi West 5.8 mph - N/A   Mostly Cloudy
9:00 PM 54 °F 48 °F 75% 29.41 in 31 mi WNW 6.7 mph - -   Clear
9:20 PM 53.6 °F 48.2 °F 82% 29.39 in 6.2 mi NW 4.6 mph - N/A   Mostly Cloudy
9:50 PM 53.6 °F 50.0 °F 88% 29.42 in 6.2 mi Calm Calm - N/A   Mostly Cloudy
10:00 PM 53 °F 49 °F 83% 29.43 in 25 mi SE 2.2 mph - - Rain Light Rain Showers
10:20 PM 53.6 °F 50.0 °F 88% 29.42 in 6.2 mi Calm Calm - N/A Rain Light Rain
10:50 PM 51.8 °F 50.0 °F 94% 29.42 in 6.2 mi SE 4.6 mph - N/A   Mostly Cloudy
11:00 PM 51 °F 49 °F 89% 29.44 in 31 mi ESE 2.2 mph - - Rain Rain
11:20 PM 51.8 °F 48.2 °F 88% 29.42 in 6.2 mi SE 2.3 mph - N/A   Mostly Cloudy
11:50 PM 50.0 °F 48.2 °F 94% 29.42 in 6.2 mi NNE 2.3 mph - N/A   Mostly Cloudy